Location: Bouillancy
(49.1149°N, 2.9308°E)
Time: 07:23:48
(UTC+00:00)

Cosmos 1544 Rocket - Pass Details

Date: 30 September 2020
Orbit: 605 x 630 km, 82.5° (Epoch: 29 October)

Event Time Altitude Azimuth Distance (km) Brightness Sun altitude
Exits shadow 19:05:31 29° 79° (E) 1,126 4.4 -16.6°
Drops below altitude 10° 19:08:53 10° 30° (NNE) 1,966 6.0 -17.1°
Sets 19:11:19 0° 19° (NNE) 2,875 7.0 -17.5°
